Regional Weather Roundup
Issued by NWS

Home | Current Version | Previous Version | Text Only | Print | Product List | Glossary On
Versions: 1 2 3 4 5 6 7 8 9 10 11 12 13 14 15 16 17 18 19 20 21 22 23 24 25 26 27 28 29 30 31 32 33 34 35 36 37 38 39 40 41 42 43 44 45 46 47 48 49 50
000
ASCA42 TJSJ 310210
RWRPR
PUERTO RICO/U.S. VIRGIN ISLANDS HOURLY WEATHER ROUNDUP
NATIONAL WEATHER SERVICE SAN JUAN PR
1000 PM AST THU JUL 30 2015

PRZ001-004-310300-
PUERTO RICO

CITY           SKY/WX    TMP DP  RH WIND       PRES   REMARKS
SAN JUAN LMM   PTCLDY    82  75  78 E7        30.07R
PONCE          PTCLDY    81  72  74 CALM      30.01
$$

PRZ006-007-310300-
U.S. VIRGIN ISLANDS

CITY           SKY/WX    TMP DP  RH WIND       PRES   REMARKS
CHARLOTTE AMA  CLEAR     84  73  70 E14       30.06R HX  91
CHRISTIANSTED  CLEAR     82  73  74 E14       30.06R
$$

HOURLY WEATHER ROUNDUP FOR THE NEWS MEDIA

CITY           SKY/WX    TMP DP  RH WIND       PRES   REMARKS
ORLANDO        MOCLDY    79  76  90 S5        29.99R
NEW YORK       MOCLDY    76  72  87 SW8       29.85R
NEWARK         MOCLDY    78  72  81 SW10      29.84R
CHICAGO        CLEAR     80  59  48 W8        29.99S
HARTFORD       CLOUDY    73  71  93 SW6       29.82S
BOSTON         LGT RAIN  75  72  90 SW14      29.79R
DALLAS         MOCLDY    95  63  34 E6        29.99R HX  96
PHILADELPHIA   MOCLDY    79  74  84 SW9       29.87R
LOS ANGELES    MOSUNNY   72  66  81 W10       29.97S
WASHINGTON DC  MOCLDY    75  74  96 CALM      29.91R



USA.gov is the U.S. government's official web portal to all federal, state and local government web resources and services.